星链-4758 (STARLINK-4758 )

导读 | 豆包AI

STARLINK-4758是美国SpaceX公司星链(Starlink)星座的一员,于2022年9月19日发射升空,属于星链低轨通信卫星。它采用平板设计与氪燃料霍尔推进器,具备自主避撞能力,运行在近地轨道,依托Ku/Ka波段通信技术,为全球提供高带宽、低延迟的宽带互联网服务,预计服役5-7年后,将主动离轨坠入大气层焚毁。

Basic Information
目录编号:
53820
目录名称:
STARLINK-4758
国际标识:
2022-114C
轨道中心:
EARTH
卫星名称:
星链-4758
卫星全名:
星链-4758 (STARLINK-4758 )
卫星状态:
在轨 (已飞行1273 天)
发射日期:
2022-09-19 UTC
国别 :
美国 (US)
星等 :
--
Orbit Information
数据来源 国际轨道数据 AOE轨道数据
星历时间 2026-03-15T05:24:31+0800
12小时前
查看轨道信息
2026-03-15T12:00:00+0800
5小时前
查看轨道信息
半长轴 6917.883km 6917.891km
偏心率 0.0001395 0.0001252
轨道倾角 53.217° 53.214°
近地点辐角 86.836° 91.026°
升交点赤经 280.986° 279.756°
平近点角 273.279° 321.713°
近地点 538.78km 538.887km
远地点 540.712km 540.621km
周期 95.438分钟 95.438分钟
每日圈数 15.088394 15.088367
Detailed Information
固有亮度:
5
最大亮度:
2.5
卫星平台:
Starlink v1.5
覆盖范围:
全球
运营商:
太空探索技术公司
运营商所在国:
美国
制造商(研发单位):
太空探索技术公司
制造商所在国:
美国
使用方式:
暂无
Satellite Introduction
星链(Starlink)计划是由太空探索技术公司(SpaceX)提出的一个巨型低轨卫星互联网星座项目,计划在2019年至2024年间在太空搭建由约1.2万颗卫星组成的“星链”网络,其中1584颗将部署在地球上空550千米处的近地轨道,并从2020年开始工作。该卫星仍在工作。
2D Orbit Map
3D Orbit Map
Orbit Altitude Analysis Chart
Orbit Inclination Analysis Chart
Orbit Comprehensive Analysis Chart
View Comprehensive Chart